Location: Passo di Treia
(43.2833°N, 13.3333°E)
Time: 08:28:58
(UTC+00:00)

Cosmos 1689 Rocket - Pass Details

Date: 09 December 2019
Orbit: 371 x 389 km, 97.5° (Epoch: 18 January)

Event Time Altitude Azimuth Distance (km) Brightness Sun altitude
Rises 15:59:28 0° 6° (N) 2,295 5.7 -5.4°
Reaches altitude 10° 16:01:30 10° 359° (N) 1,431 4.7 -5.7°
Maximum altitude 16:04:25 44° 286° (WNW) 554 3.3 -6.2°
Drops below altitude 10° 16:07:18 10° 213° (SSW) 1,410 5.9 -6.7°
Sets 16:09:17 0° 207° (SSW) 2,255 6.9 -7.0°
